Showing default

RAPTOR4, 58956

Orbit data source: Space-Track

RAPTOR4, 58956 is a payload satellite owned by SDA (US) in LEO that was launched on Wed, 14 Feb 2024 UTC via an FALCON 9 launch vehicle from the Air Force Eastern Test Range (AFETR). Payload-class satellites include a variety of spacecraft equipped with specific instruments for various scientific and technological missions. These include communications satellites like Starlink; space stations such as the ISS; scientific satellites like the Hubble; Earth observation satellites from companies like Planet Labs, Umbra, and HawkEye 360; GPS; miniature CubeSats for education and research; and military/defense satellites.

Loading next visibility...
Identifier
58956, 2024-028B
Orbit
LEO
Country
Flag of USUS
Related business
Manufacturer
L3Harris SIS
Mission
Operational Defense Early Warn
Bus & Motor
TPL0-L3H, Unknown motor
Mass
~1,000 kg wet, ~1,000 kg dry
Launch date (UTC)
2024-02-14 (2 years ago)
Launch vehicle
FALCON 9
Launch site
Air Force Eastern Test Range (AFETR)
Object type
Payload
Rocket body
Debris
Shape & HBR
Box + 1 Pan, 1.0 m
Radar Cross Section
0.945 m², Large (>1 m²)

Expand to show TLE details & history
Last TLE update: 14 hours ago

TLE from 14 hours ago
0 RAPTOR4
1 58956U 24028B   25259.25800333 -.00000180  00000-0 -11573-3 0  9997
2 58956  39.9899 222.3637 0013716 103.4615 256.7661 13.70147903 79470
Epoch: 2025-09-16T06:11Z
TLE epoch observation values (Epoch: 2025-09-16T06:11:31.487Z)
Latitude
-0°
Longitude
134.03161°
Altitude
1,000.85 km
Speed
7.352 km/s
True Right ascension
14h 49m 27s
True Declination
0° 00' 00"
Sunlit
Object was in daylight at epoch
Visualization orbit readout
Latitude
Unknown
Longitude
Unknown
Altitude
Unknown
Speed
Unknown
Apparent Right ascension
Unknown
Apparent Declination
Unknown
Sunlit
N/A
Visualization observer readout
Local Sidereal Time
12:37:52
Azimuth
Unknown
Elevation
Unknown
Doppler factor
Unknown
Orbital elements
Apogee altitude
1,011.438 km
Perigee altitude
991.195 km
Semi-major axis
7,379.454 km
Eccentricity
0.00137
Inclination
39.9899°
RAAN
222.3637°
Arg. of periapsis
103.4615°
True anomaly
256.61316°
Mean anomaly
256.7661°
Eccentric anomaly
256.68962°
Mean motion
3.42379 °/min
Orbital period
105.15 mins
BSTAR
-0.00011573
Loading maneuver chart data...
Computing Atmospheric mass density...
Loading historical data...
Loading historical data...
Loading historical data...
Loading historical data...
Loading historical data...
Loading historical data...
Loading historical data...
Other satellites on launch #28 in the year 2024 (2024-02-14 UTC)

Documentation

Showing up to 5 results
|